Regional Weather Roundup
Issued by NWS Sioux Falls, SD

Home | Current Version | Previous Version | Graphics & Text | Print | Product List | Glossary Off
Versions: 1 2 3 4 5 6 7 8 9 10 11 12 13 14 15 16 17 18 19 20 21 22 23 24 25 26 27 28 29 30 31 32 33 34 35 36 37 38 39 40 41 42 43 44 45 46 47 48 49 50

233
ASUS43 KFSD 291802
RWRFSD

WEATHER ROUNDUP FOR SE SOUTH DAKOTA/SW MINNESOTA/NW IOWA
NATIONAL WEATHER SERVICE SIOUX FALLS SD
100 PM CDT MON AUG 29 2016

NOTE: "FAIR" INDICATES FEW OR NO CLOUDS BELOW 12,000 FEET WITH NO
SIGNIFICANT WEATHER AND OR OBSTRUCTIONS TO VISIBILITY.


SDZ038>040-050-052>070-291900-
SOUTHEAST SOUTH DAKOTA

CITY           SKY/WX    TMP DP  RH WIND       PRES   REMARKS
CHAMBERLAIN    SUNNY     89  68  48 SW7       30.14S
6HR MIN TEMP:  64; 6HR MAX TEMP:  89;

HURON          SUNNY     85  68  56 SE8       30.13F
6HR MIN TEMP:  67; 6HR MAX TEMP:  86;

MADISON        FAIR      79  73  83 SE12      30.19F
MITCHELL       MOSUNNY   88  70  55 S9        30.15S
6HR MIN TEMP:  68; 6HR MAX TEMP:  88;

SIOUX FALLS    PTSUNNY   82  70  66 SE13      30.20F
6HR MIN TEMP:  68; 6HR MAX TEMP:  82;

WINNER         FAIR      91  64  40 CALM      30.15F
YANKTON        MOSUNNY   79  64  61 SE10      30.18S
$$

MNZ071-072-080-081-089-090-097-098-291900-
SOUTHWEST MINNESOTA

CITY           SKY/WX    TMP DP  RH WIND       PRES   REMARKS
FAIRMONT       MOSUNNY   81  74  79 S9        30.21F
JACKSON        MOSUNNY   82  68  61 S6        30.22F
LUVERNE        PTSUNNY   79  68  69 S6        30.22F
MARSHALL       MOSUNNY   79  71  76 SE12      30.18F
6HR MIN TEMP:  70; 6HR MAX TEMP:  79;

MONTEVIDEO     CLOUDY    82  72  69 SW12G17   30.17S
REDWOOD FALLS  CLOUDY    81  70  69 S13       30.17F
TRACY          MOSUNNY   79  72  79 S9        30.20F
WINDOM         CLOUDY    79  70  73 CALM      30.21F
WORTHINGTON    MOSUNNY   79  71  76 S8        30.23F
$$

IAZ001>003-012>014-020>022-031-032-NEZ013-014-SDZ071-291900-
NORTHWEST IOWA

CITY           SKY/WX    TMP DP  RH WIND       PRES   REMARKS
CHEROKEE       CLOUDY    78  71  80 CALM      30.22F
DENISON        MOSUNNY   77  72  83 VRB6      30.20F
ESTHERVILLE    MOSUNNY   80  72  76 S8        30.22F
LE MARS        CLOUDY    81  70  69 S6        30.22S
ORANGE CITY    CLOUDY    77  70  78 SW6       30.23S
SHELDON        MOSUNNY   81  72  74 S5        30.21F
SIOUX CITY     MOSUNNY   78  69  73 CALM      30.20F
6HR MIN TEMP:  67; 6HR MAX TEMP:  79;

SPENCER        SUNNY     83  68  60 VRB5      30.22F
6HR MIN TEMP:  63; 6HR MAX TEMP:  83;

STORM LAKE     CLOUDY    79  72  78 SW3       30.23F
$$

ABBREVIATIONS USED IN REMARKS
   TC - TEMPERATURE IN CELSIUS
  WCI - WIND CHILL INDEX
   HX - HEAT INDEX
  VSB - VISIBILITY





USA.gov is the U.S. government's official web portal to all federal, state and local government web resources and services.